Track IRIDIUM 102 now! 10-day predictions IRIDIUM 102 is classified as:
1 41920U 17003D 23081.48104415 .00000545 00000-0 18737-3 0 9991 2 41920 86.3997 222.5947 0002204 91.2255 268.9193 14.34218246323767